TimeCST,TemperatureF,Dew PointF,Humidity,Sea Level PressureIn,VisibilityMPH,Wind Direction,Wind SpeedMPH,Gust SpeedMPH,PrecipitationIn,Events,Conditions,WindDirDegrees,DateUTC
12:53 AM,28.9,19.0,67,30.34,10.0,NNW,8.1,-,N/A,,Clear,340,2014-01-15 06:53:00
1:53 AM,24.1,18.0,77,30.34,10.0,North,6.9,-,N/A,,Clear,10,2014-01-15 07:53:00
2:53 AM,25.0,18.0,75,30.34,10.0,North,5.8,-,N/A,,Clear,350,2014-01-15 08:53:00
3:53 AM,23.0,17.1,78,30.34,10.0,Calm,Calm,-,N/A,,Clear,0,2014-01-15 09:53:00
4:53 AM,24.1,19.0,81,30.33,10.0,Calm,Calm,-,N/A,,Clear,0,2014-01-15 10:53:00
5:53 AM,24.1,18.0,77,30.34,10.0,Calm,Calm,-,N/A,,Clear,0,2014-01-15 11:53:00
6:53 AM,24.1,18.0,77,30.33,10.0,SW,4.6,-,N/A,,Clear,230,2014-01-15 12:53:00
7:53 AM,21.9,17.1,82,30.33,10.0,Calm,Calm,-,N/A,,Clear,0,2014-01-15 13:53:00
8:53 AM,26.1,19.9,78,30.33,10.0,Calm,Calm,-,N/A,,Clear,0,2014-01-15 14:53:00
9:53 AM,34.0,24.1,67,30.32,10.0,West,8.1,-,N/A,,Clear,260,2014-01-15 15:53:00
10:53 AM,39.9,24.1,53,30.30,10.0,West,4.6,-,N/A,,Overcast,270,2014-01-15 16:53:00
11:53 AM,44.1,19.9,38,30.26,10.0,WNW,6.9,-,N/A,,Scattered Clouds,300,2014-01-15 17:53:00
12:53 PM,46.9,19.9,34,30.20,10.0,WSW,8.1,-,N/A,,Scattered Clouds,240,2014-01-15 18:53:00
1:53 PM,48.0,19.9,33,30.16,10.0,WSW,5.8,16.1,N/A,,Scattered Clouds,250,2014-01-15 19:53:00
2:53 PM,50.0,21.0,32,30.12,10.0,SW,10.4,-,N/A,,Clear,220,2014-01-15 20:53:00
3:53 PM,51.1,21.9,32,30.08,10.0,SSW,9.2,-,N/A,,Clear,210,2014-01-15 21:53:00
4:53 PM,50.0,21.9,33,30.05,10.0,SSW,5.8,-,N/A,,Clear,200,2014-01-15 22:53:00
5:53 PM,45.0,23.0,42,30.04,10.0,South,4.6,-,N/A,,Clear,170,2014-01-15 23:53:00
6:53 PM,46.9,23.0,39,30.02,10.0,South,6.9,-,N/A,,Clear,170,2014-01-16 00:53:00
7:53 PM,46.0,21.9,39,29.99,10.0,South,10.4,-,N/A,,Clear,170,2014-01-16 01:53:00
8:53 PM,44.1,23.0,43,29.98,10.0,South,8.1,-,N/A,,Partly Cloudy,180,2014-01-16 02:53:00
9:53 PM,43.0,23.0,45,29.94,10.0,South,8.1,-,N/A,,Clear,180,2014-01-16 03:53:00
10:53 PM,39.9,23.0,51,29.93,10.0,Variable,4.6,-,N/A,,Clear,0,2014-01-16 04:53:00
11:53 PM,41.0,24.1,51,29.90,10.0,South,4.6,-,N/A,,Clear,190,2014-01-16 05:53:00